Radiation Dose at Monitoring Post of Fukushima Daini Nuclear Power Station
Date,Time,MP-1(microSv/h),MP-2(microSv/h),MP-3(microSv/h),MP-4(microSv/h),MP-5(microSv/h),MP-6(microSv/h),MP-7(microSv/h),Wind Direction,Wind Velocity(m/s),Rain
2018/06/29,00:00,0.317,0.201,0.322,0.308,0.292,0.157,0.098,south-southwest,2.2,No
2018/06/29,00:10,0.313,0.199,0.322,0.309,0.288,0.156,0.098,south-southwest,4.2,No
2018/06/29,00:20,0.317,0.200,0.320,0.311,0.289,0.157,0.097,south-southwest,4.5,No
2018/06/29,00:30,0.317,0.200,0.323,0.309,0.292,0.158,0.098,south,4.5,No
2018/06/29,00:40,0.314,0.200,0.320,0.311,0.289,0.156,0.098,south-southwest,3.9,No
2018/06/29,00:50,0.317,0.200,0.322,0.310,0.293,0.157,0.099,south-southwest,3.3,No
2018/06/29,01:00,0.314,0.200,0.323,0.310,0.292,0.157,0.099,south-southwest,3.3,No
2018/06/29,01:10,0.317,0.200,0.322,0.311,0.289,0.158,0.098,south,3.6,No
2018/06/29,01:20,0.316,0.200,0.323,0.308,0.292,0.156,0.098,south,4.8,No
2018/06/29,01:30,0.315,0.200,0.320,0.312,0.289,0.157,0.098,south-southwest,4.5,No
2018/06/29,01:40,0.317,0.200,0.323,0.310,0.290,0.157,0.098,south-southwest,4.8,No
2018/06/29,01:50,0.316,0.200,0.322,0.310,0.292,0.157,0.099,south-southwest,4.9,No
2018/06/29,02:00,0.319,0.200,0.321,0.312,0.288,0.158,0.098,south-southwest,5.0,No
2018/06/29,02:10,0.316,0.202,0.323,0.308,0.292,0.158,0.098,south-southwest,4.5,No
2018/06/29,02:20,0.316,0.200,0.320,0.312,0.290,0.158,0.099,south-southwest,5.5,No
2018/06/29,02:30,0.316,0.201,0.323,0.311,0.288,0.158,0.099,south-southwest,6.1,No
2018/06/29,02:40,0.316,0.200,0.321,0.309,0.292,0.157,0.097,south-southwest,4.9,No
2018/06/29,02:50,0.318,0.201,0.320,0.311,0.290,0.158,0.098,south-southwest,4.7,No
2018/06/29,03:00,0.315,0.201,0.324,0.309,0.290,0.157,0.098,south-southwest,4.4,No
2018/06/29,03:10,0.318,0.201,0.320,0.311,0.291,0.157,0.097,south,5.2,No
2018/06/29,03:20,0.315,0.202,0.322,0.311,0.287,0.157,0.098,south,6.1,No
2018/06/29,03:30,0.317,0.200,0.320,0.308,0.292,0.156,0.097,south,6.1,No
2018/06/29,03:40,0.316,0.202,0.322,0.311,0.288,0.158,0.097,south-southwest,5.3,Yes
2018/06/29,03:50,0.317,0.199,0.322,0.309,0.288,0.156,0.098,south-southwest,4.9,No
2018/06/29,04:00,0.317,0.200,0.319,0.308,0.292,0.157,0.098,south-southwest,4.8,No
2018/06/29,04:10,0.313,0.199,0.322,0.312,0.288,0.155,0.097,south,5.6,No
2018/06/29,04:20,0.318,0.200,0.320,0.307,0.290,0.155,0.097,south,5.8,No
2018/06/29,04:30,0.315,0.199,0.319,0.308,0.290,0.156,0.097,south,5.5,No
2018/06/29,04:40,0.316,0.200,0.321,0.310,0.286,0.155,0.097,south,6.2,No
2018/06/29,04:50,0.317,0.198,0.318,0.306,0.291,0.156,0.097,south-southwest,6.3,No
2018/06/29,05:00,0.313,0.199,0.321,0.310,0.289,0.156,0.098,south,5.8,No
2018/06/29,05:10,0.316,0.200,0.322,0.308,0.287,0.155,0.096,south,5.5,No
2018/06/29,05:20,0.314,0.198,0.318,0.307,0.292,0.156,0.097,south,4.8,No
2018/06/29,05:30,0.313,0.199,0.321,0.310,0.287,0.155,0.097,south,4.7,No
2018/06/29,05:40,0.316,0.199,0.318,0.308,0.285,0.155,0.096,south,4.8,No
2018/06/29,05:50,0.315,0.198,0.320,0.306,0.288,0.156,0.096,south,5.0,No
2018/06/29,06:00,0.313,0.197,0.321,0.310,0.289,0.155,0.097,south,6.2,No
2018/06/29,06:10,0.316,0.198,0.319,0.308,0.287,0.155,0.096,south,6.4,No
2018/06/29,06:20,0.314,0.197,0.320,0.305,0.286,0.156,0.096,south,5.0,No
2018/06/29,06:30,0.311,0.197,0.321,0.310,0.284,0.156,0.096,south,5.1,No
2018/06/29,06:40,0.313,0.196,0.320,0.309,0.286,0.155,0.096,south,4.5,No
2018/06/29,06:50,0.316,0.196,0.316,0.307,0.289,0.156,0.096,south-southeast,4.2,No
2018/06/29,07:00,0.315,0.197,0.321,0.306,0.288,0.156,0.096,south,4.6,No
2018/06/29,07:10,0.312,0.197,0.320,0.309,0.287,0.156,0.095,south,5.8,No
2018/06/29,07:20,0.316,0.197,0.319,0.307,0.285,0.156,0.095,south,6.2,No
2018/06/29,07:30,0.316,0.197,0.318,0.306,0.288,0.156,0.095,south,5.4,No
2018/06/29,07:40,0.314,0.197,0.318,0.305,0.290,0.156,0.095,south,4.7,No
2018/06/29,07:50,0.313,0.198,0.316,0.305,0.290,0.154,0.096,south-southwest,6.7,No
2018/06/29,08:00,0.311,0.198,0.317,0.305,0.288,0.156,0.096,south-southwest,5.6,No
2018/06/29,08:10,0.312,0.200,0.319,0.306,0.288,0.155,0.096,south-southwest,6.5,No
2018/06/29,08:20,0.311,0.199,0.319,0.306,0.289,0.156,0.096,south-southwest,4.3,No
2018/06/29,08:30,0.310,0.199,0.319,0.308,0.288,0.156,0.097,south-southwest,3.4,No
2018/06/29,08:40,0.312,0.200,0.320,0.308,0.289,0.155,0.096,south-southwest,3.8,No
2018/06/29,08:50,0.312,0.199,0.320,0.307,0.288,0.155,0.096,south-southwest,4.5,No
2018/06/29,09:00,0.313,0.200,0.319,0.309,0.289,0.156,0.096,south-southwest,7.4,No
2018/06/29,09:10,0.313,0.199,0.320,0.308,0.289,0.155,0.097,south-southwest,8.4,No
2018/06/29,09:20,0.312,0.199,0.320,0.309,0.288,0.155,0.096,south,12.0,No
2018/06/29,09:30,0.315,0.200,0.320,0.308,0.289,0.157,0.096,south,11.7,No
2018/06/29,09:40,0.315,0.199,0.319,0.308,0.289,0.156,0.096,south,12.9,No
2018/06/29,09:50,0.316,0.200,0.319,0.308,0.288,0.156,0.096,south,13.1,No
2018/06/29,10:00,0.315,0.200,0.319,0.310,0.289,0.157,0.096,south,13.1,No
2018/06/29,10:10,0.315,0.198,0.319,0.310,0.289,0.156,0.097,-,-,No
2018/06/29,10:20,0.316,0.200,0.318,0.310,0.288,0.156,0.096,-,-,No
2018/06/29,10:30,0.317,0.199,0.320,0.310,0.287,0.156,0.096,-,-,No
2018/06/29,10:40,0.317,0.200,0.320,0.310,0.287,0.157,0.096,-,-,No
2018/06/29,10:50,0.315,0.200,0.321,0.311,0.287,0.157,0.096,-,-,No
2018/06/29,11:00,0.314,0.200,0.320,0.310,0.287,0.156,0.097,-,-,No
2018/06/29,11:10,0.315,0.199,0.321,0.311,0.290,0.156,0.096,-,-,No
2018/06/29,11:20,0.315,0.200,0.321,0.311,0.289,0.155,0.097,-,-,No
2018/06/29,11:30,0.316,0.200,0.322,0.312,0.289,0.157,0.097,-,-,No
2018/06/29,11:40,0.318,0.202,0.323,0.310,0.289,0.156,0.097,-,-,No
2018/06/29,11:50,0.319,0.201,0.324,0.309,0.290,0.157,0.096,-,-,No
2018/06/29,12:00,0.316,0.200,0.322,0.311,0.288,0.156,0.096,-,-,No
2018/06/29,12:10,0.316,0.199,0.322,0.311,0.289,0.156,0.096,-,-,No
2018/06/29,12:20,0.317,0.199,0.321,0.311,0.288,0.156,0.096,-,-,No
2018/06/29,12:30,0.315,0.199,0.323,0.310,0.287,0.156,0.097,-,-,No
2018/06/29,12:40,0.316,0.199,0.322,0.310,0.288,0.156,0.096,-,-,No
2018/06/29,12:50,0.316,0.199,0.322,0.311,0.288,0.157,0.096,-,-,No
2018/06/29,13:00,0.313,0.200,0.322,0.309,0.287,0.155,0.097,-,-,No
2018/06/29,13:10,0.314,0.199,0.321,0.309,0.289,0.155,0.096,-,-,No
2018/06/29,13:20,0.314,0.200,0.320,0.308,0.290,0.157,0.096,-,-,No
2018/06/29,13:30,0.315,0.200,0.318,0.310,0.287,0.156,0.095,-,-,No
2018/06/29,13:40,0.315,0.200,0.321,0.308,0.289,0.155,0.096,-,-,No
2018/06/29,13:50,0.315,0.200,0.321,0.309,0.288,0.156,0.096,-,-,No
2018/06/29,14:00,0.316,0.201,0.321,0.311,0.287,0.156,0.096,-,-,No
2018/06/29,14:10,0.317,0.199,0.323,0.311,0.289,0.156,0.096,-,-,No
2018/06/29,14:20,0.317,0.200,0.323,0.312,0.289,0.156,0.096,-,-,No
2018/06/29,14:30,0.317,0.200,0.322,0.312,0.290,0.157,0.096,-,-,No
2018/06/29,14:40,0.317,0.200,0.324,0.311,0.289,0.156,0.096,-,-,No
2018/06/29,14:50,0.317,0.199,0.322,0.310,0.289,0.157,0.097,-,-,No
2018/06/29,15:00,0.315,0.200,0.321,0.309,0.288,0.157,0.096,-,-,No
2018/06/29,15:10,0.316,0.200,0.322,0.311,0.290,0.157,0.096,-,-,No
2018/06/29,15:20,0.316,0.201,0.321,0.309,0.288,0.157,0.095,-,-,No
2018/06/29,15:30,0.316,0.201,0.322,0.310,0.287,0.157,0.096,-,-,No
2018/06/29,15:40,0.317,0.200,0.321,0.309,0.290,0.157,0.096,-,-,No
2018/06/29,15:50,0.316,0.200,0.322,0.311,0.288,0.156,0.096,-,-,No
2018/06/29,16:00,0.317,0.200,0.322,0.308,0.289,0.156,0.097,-,-,No
2018/06/29,16:10,0.317,0.200,0.321,0.309,0.288,0.157,0.096,-,-,No
2018/06/29,16:20,0.318,0.200,0.321,0.310,0.289,0.156,0.096,south-southwest,11.8,No
2018/06/29,16:30,0.316,0.199,0.322,0.310,0.289,0.157,0.096,south-southwest,11.7,No
2018/06/29,16:40,0.316,0.199,0.321,0.309,0.289,0.157,0.097,south-southwest,12.6,No
2018/06/29,16:50,0.317,0.199,0.320,0.311,0.288,0.157,0.096,south-southwest,12.0,No
2018/06/29,17:00,0.315,0.199,0.321,0.308,0.287,0.157,0.097,south-southwest,12.3,No
2018/06/29,17:10,0.314,0.199,0.319,0.309,0.289,0.155,0.097,south,11.5,No
2018/06/29,17:20,0.314,0.200,0.320,0.313,0.289,0.156,0.096,south-southwest,12.6,No
2018/06/29,17:30,0.314,0.201,0.320,0.314,0.289,0.156,0.096,south,11.7,No
2018/06/29,17:40,0.317,0.199,0.319,0.313,0.288,0.157,0.097,south,12.3,No
2018/06/29,17:50,0.315,0.199,0.326,0.310,0.288,0.157,0.096,south,11.1,No
2018/06/29,18:00,0.316,0.201,0.325,0.309,0.287,0.156,0.098,south,12.3,No
2018/06/29,18:10,0.314,0.202,0.322,0.314,0.288,0.157,0.097,south,12.2,No
2018/06/29,18:20,0.314,0.200,0.321,0.312,0.288,0.158,0.095,south,12.3,No
2018/06/29,18:30,0.317,0.198,0.323,0.310,0.285,0.157,0.097,south-southwest,12.0,No
2018/06/29,18:40,0.317,0.202,0.325,0.310,0.292,0.155,0.097,south-southwest,11.8,No
2018/06/29,18:50,0.319,0.201,0.324,0.314,0.291,0.157,0.096,south-southwest,11.2,No
2018/06/29,19:00,0.315,0.199,0.322,0.313,0.289,0.158,0.096,south-southwest,9.2,No
2018/06/29,19:10,0.318,0.200,0.320,0.311,0.287,0.157,0.097,south-southwest,7.6,No
2018/06/29,19:20,0.320,0.200,0.325,0.309,0.288,0.157,0.097,south-southwest,5.1,No
2018/06/29,19:30,0.317,0.199,0.325,0.314,0.291,0.158,0.097,south-southwest,4.7,No
2018/06/29,19:40,0.314,0.199,0.323,0.313,0.289,0.157,0.097,south-southwest,5.5,No
2018/06/29,19:50,0.318,0.201,0.319,0.311,0.288,0.156,0.096,south-southwest,8.1,No
2018/06/29,20:00,0.317,0.200,0.325,0.309,0.289,0.156,0.097,south,8.2,No
2018/06/29,20:10,0.315,0.199,0.324,0.314,0.292,0.157,0.097,south-southwest,7.0,No
2018/06/29,20:20,0.315,0.200,0.322,0.313,0.289,0.157,0.097,south-southwest,6.9,No
2018/06/29,20:30,0.319,0.201,0.321,0.310,0.288,0.156,0.097,south-southwest,7.2,No
2018/06/29,20:40,0.317,0.199,0.324,0.310,0.290,0.156,0.096,south-southwest,8.2,No
2018/06/29,20:50,0.314,0.201,0.324,0.314,0.291,0.157,0.097,south-southwest,7.5,No
2018/06/29,21:00,0.318,0.201,0.322,0.313,0.290,0.157,0.097,south-southwest,5.6,No
2018/06/29,21:10,0.319,0.199,0.321,0.311,0.288,0.157,0.097,south-southwest,4.0,No
2018/06/29,21:20,0.315,0.200,0.324,0.311,0.291,0.157,0.098,south-southwest,3.8,No
2018/06/29,21:30,0.317,0.202,0.325,0.313,0.291,0.157,0.097,west-southwest,2.3,No
2018/06/29,21:40,0.321,0.200,0.322,0.311,0.289,0.158,0.098,north-northwest,2.9,No
2018/06/29,21:50,0.317,0.201,0.324,0.310,0.289,0.158,0.098,north,3.8,No
2018/06/29,22:00,0.318,0.201,0.323,0.314,0.294,0.156,0.097,north,3.9,No
2018/06/29,22:10,0.320,0.200,0.323,0.313,0.289,0.158,0.098,north-northeast,2.1,No
2018/06/29,22:20,0.315,0.201,0.322,0.309,0.288,0.157,0.097,north-northeast,1.4,No
2018/06/29,22:30,0.318,0.201,0.325,0.314,0.293,0.156,0.097,-,CALM,No
2018/06/29,22:40,0.318,0.200,0.323,0.312,0.291,0.158,0.098,east-northeast,0.8,No
2018/06/29,22:50,0.315,0.201,0.321,0.312,0.288,0.156,0.097,-,CALM,No
2018/06/29,23:00,0.317,0.200,0.326,0.314,0.291,0.157,0.097,north-northeast,1.1,No
2018/06/29,23:10,0.317,0.200,0.324,0.313,0.291,0.158,0.097,north-northeast,1.6,No
2018/06/29,23:20,0.317,0.200,0.322,0.310,0.286,0.157,0.097,north,0.9,No
2018/06/29,23:30,0.319,0.200,0.325,0.314,0.290,0.157,0.098,north,1.1,No
2018/06/29,23:40,0.317,0.201,0.324,0.312,0.290,0.157,0.097,-,CALM,No
2018/06/29,23:50,0.316,0.200,0.322,0.309,0.288,0.157,0.097,-,CALM,No
